KEPLER-11 (DANEEL) (47503 NORAD) Tracking and Keplerian Element Data
This shows tracking and keplerian element data for the satellite.
Feedback or suggestion? Click here.
Element | Value |
Catalog | 47503 |
Name | KEPLER-11 (DANEEL) |
Epoch Orbit | 1168 |
Epoch Day | 99.90390443 |
Epoch Year | 2021 |
RAAN | 162.2987 |
Inclination | 97.4982 |
Eccentricity | 0.0009292 |
Argument of Perigee | 358.7145 |
Mean Anonmoly | 1.406 |
Mean Motion | 15.12242881 |
Decay Rate | 7.81E-06 |
L1 | 1 47503U 21006CU 21099.90390443 .00000781 00000-0 48885-4 0 9994 |
L2 | 2 47503 97.4982 162.2987 0009292 358.7145 1.4060 15.12242881 11681 |
Live tracking and technical data element details for KEPLER-11 (DANEEL) (NORAD 47503). KEPLER-11 (DANEEL) can be tracked NOW for your location showing map with azimuth and elevation plus other details from your city location.
Track the satellite on the map from your city or location and see movement details for azimuth, elevation, latitude, longitude, range, height, and movement on the map or in text.
IsCatalogInMostPopularTable: catalog: 47503, numindb: 15
Update: records affected: 1
GetName: 47503 KEPLER-11 (DANEEL)
Hit Count: updated at: Sat, 10 Apr 2021 18:32:33 GMT